Language: 


Des rapports , des résumés tant et plus, au choix de chacun....


Données statistiques de la station
Quotidien Rapport Juillet 12, 2017 Unités:  Anglais    Métrique   les deux
« Précédent Jour
Suivant Jour »
Quotidien Hebdomadaire Mensuel Annuel Actuel
  Haut: Bas: Moyen:
Température: 72.1 °F 32 °F 63.1 °F
Pt de rosée: 64.4 °F 46.4 °F 57.7 °F
Humidité: 98 % 0 % 83 %
Vitesse du vent: 19.9 mph 0 mph 5.7 mph
Rafales: 26.2 mph - -
Vent:- - WSW
Pression: 30.2 in 29.6 in -
Précipitation: 0.19 in    
Historical Graphs
 
 
Données statistiques pour Juillet 12, 2017
Heure Température Point de rosée Pression Vent Vitesse du vent Refales Humidité Pluie (taux horaire)
00:01 59.2 °F 57.2 °F 29.8 in Calm   3.8 mph 95 % 0.02 in
00:06 59 °F 57.2 °F 29.8 in Calm   3.8 mph 95 % 0.03 in
00:11 59 °F 57.2 °F 29.8 in ESE 3.4 mph 4.7 mph 95 % 0.03 in
00:16 58.8 °F 57.2 °F 29.8 in Calm   4.7 mph 95 % 0.03 in
00:19 58.8 °F 57.2 °F 29.8 in Calm   4.7 mph 95 % 0.06 in
00:24 58.8 °F 59 °F 29.8 in Calm   3.6 mph 96 % 0.07 in
00:29 58.8 °F 59 °F 29.8 in Calm   3.8 mph 96 % 0.08 in
00:34 58.8 °F 59 °F 29.8 in Calm   3.8 mph 96 % 0.08 in
00:39 58.8 °F 59 °F 29.8 in Calm   3.4 mph 96 % 0.08 in
00:44 58.8 °F 59 °F 29.8 in East 1.6 mph 3.6 mph 96 % 0.08 in
00:49 58.8 °F 59 °F 29.8 in Calm   4.3 mph 96 % 0.08 in
00:54 58.8 °F 59 °F 29.8 in ESE 0.9 mph 6.5 mph 96 % 0.07 in
00:59 58.8 °F 59 °F 29.8 in East 3.1 mph 6.5 mph 97 % 0.06 in
01:05 58.8 °F 59 °F 29.8 in East 2.2 mph 5.8 mph 97 % 0.06 in
01:10 58.8 °F 59 °F 29.8 in East 4.3 mph 5.4 mph 97 % 0.06 in
01:15 58.6 °F 57.2 °F 29.8 in East 2 mph 5.4 mph 97 % 0.06 in
01:20 58.6 °F 57.2 °F 29.8 in ESE 2.5 mph 5.4 mph 97 % 0.03 in
01:25 58.6 °F 57.2 °F 29.8 in ESE 1.6 mph 5.4 mph 97 % 0.02 in
01:30 58.6 °F 57.2 °F 29.8 in ESE 3.4 mph 5.4 mph 97 % 0.01 in
01:35 58.6 °F 57.2 °F 29.8 in Calm   4 mph 97 % 0.01 in
01:40 58.8 °F 59 °F 29.8 in Calm   3.8 mph 97 % 0.01 in
01:45 58.8 °F 59 °F 29.8 in Calm   1.6 mph 97 % 0.01 in
01:50 58.8 °F 59 °F 29.8 in Calm   2.5 mph 97 % 0.01 in
01:55 59 °F 59 °F 29.8 in Calm   2.7 mph 96 % 0.02 in
02:00 59 °F 59 °F 29.8 in SE 2.9 mph 3.4 mph 96 % 0.02 in
02:05 59.2 °F 59 °F 29.8 in SSE 3.1 mph 3.6 mph 96 % 0.01 in
02:10 59.2 °F 59 °F 29.8 in SSW 1.3 mph 3.6 mph 97 % 0.01 in
02:15 59.2 °F 59 °F 29.8 in SE 0.9 mph 3.6 mph 97 % 0.01 in
02:20 59.2 °F 59 °F 29.8 in Calm   2.7 mph 97 % 0.01 in
02:25 59.2 °F 59 °F 29.8 in Calm   2.7 mph 97 % 0.02 in
02:31 59.2 °F 59 °F 29.8 in Calm   1.3 mph 97 % 0.02 in
02:36 59.2 °F 59 °F 29.8 in Calm   1.3 mph 97 % 0.02 in
02:41 59.2 °F 59 °F 29.8 in Calm     97 % 0.02 in
02:42 59.2 °F 59 °F 29.8 in Calm   1.3 mph 97 % 0.02 in
02:47 59.4 °F 59 °F 29.7 in Calm   3.1 mph 97 % 0.02 in
02:52 59.4 °F 59 °F 29.7 in SSE 2.9 mph 3.1 mph 97 % 0.02 in
02:57 59.4 °F 59 °F 29.7 in Calm   3.1 mph 97 % 0.01 in
03:02 59.4 °F 59 °F 29.8 in Calm   3.1 mph 97 % 0.01 in
03:07 59.5 °F 59 °F 29.8 in Calm   4 mph 97 % 0.01 in
03:12 59.5 °F 59 °F 29.8 in South 0.9 mph 4.9 mph 97 % 0.01 in
03:17 59.7 °F 59 °F 29.7 in Calm   4.9 mph 97 % 0.01 in
03:22 59.7 °F 59 °F 29.7 in Calm   5.6 mph 97 % 0 in
03:27 59.7 °F 59 °F 29.7 in South 3.1 mph 5.6 mph 97 % 0 in
03:32 59.9 °F 59 °F 29.7 in Calm   4.3 mph 97 % 0 in
03:37 59.9 °F 60.8 °F 29.7 in SSW 0.9 mph 4 mph 98 % 0 in
03:42 59.9 °F 60.8 °F 29.7 in Calm   7.4 mph 98 % 0 in
03:47 60.1 °F 60.8 °F 29.7 in SSE 5.4 mph 7.4 mph 98 % 0 in
03:52 60.1 °F 60.8 °F 29.7 in SSW 4.3 mph 7.8 mph 98 % 0 in
03:57 60.1 °F 60.8 °F 29.7 in SSW 5.8 mph 7.8 mph 98 % 0 in
04:02 60.3 °F 60.8 °F 29.7 in SW 8.1 mph 8.1 mph 98 % 0 in
04:07 60.4 °F 60.8 °F 29.7 in SSW 6 mph 8.5 mph 98 % 0 in
04:12 60.6 °F 60.8 °F 29.7 in SSW 5.6 mph 8.5 mph 98 % 0 in
04:17 60.6 °F 60.8 °F 29.7 in SSW 3.1 mph 7.6 mph 98 % 0 in
04:22 60.6 °F 60.8 °F 29.7 in SSW 5.4 mph 7.6 mph 98 % 0 in
04:28 60.8 °F 60.8 °F 29.7 in SSW 7.4 mph 7.4 mph 98 % 0 in
04:33 61 °F 60.8 °F 29.7 in SSW 5.8 mph 8.5 mph 98 % 0 in
04:38 61 °F 60.8 °F 29.7 in SSW 2.9 mph 8.7 mph 98 % 0 in
04:43 61 °F 60.8 °F 29.7 in SSW 3.8 mph 8.7 mph 98 % 0 in
04:48 61.2 °F 60.8 °F 29.7 in South 6.3 mph 7.8 mph 98 % 0 in
04:53 61.2 °F 60.8 °F 29.7 in SSW 5.8 mph 7.6 mph 98 % 0 in
04:58 61.2 °F 60.8 °F 29.7 in WSW 4 mph 8.5 mph 98 % 0 in
05:03 61.3 °F 60.8 °F 29.7 in Calm   8.5 mph 98 % 0 in
05:08 61.3 °F 60.8 °F 29.7 in SSW 2.7 mph 7.4 mph 98 % 0 in
05:13 61.3 °F 60.8 °F 29.7 in SSW 8.1 mph 8.7 mph 98 % 0 in
05:18 61.3 °F 60.8 °F 29.7 in SSW 4 mph 8.7 mph 98 % 0 in
05:23 61.5 °F 60.8 °F 29.7 in SSW 3.6 mph 8.9 mph 98 % 0 in
05:28 61.5 °F 60.8 °F 29.7 in SW 7.2 mph 8.9 mph 98 % 0 in
05:34 61.5 °F 60.8 °F 29.7 in SSW 3.8 mph 8.7 mph 98 % 0 in
05:39 61.5 °F 60.8 °F 29.7 in SSW 5.6 mph 8.7 mph 98 % 0 in
05:44 61.7 °F 62.6 °F 29.7 in SSW 3.8 mph 8.5 mph 98 % 0 in
05:49 61.7 °F 62.6 °F 29.7 in South 10.1 mph 10.1 mph 98 % 0 in
05:54 61.7 °F 62.6 °F 29.7 in SW 4 mph 10.1 mph 98 % 0 in
05:59 61.7 °F 62.6 °F 29.7 in SSW 8.5 mph 12.1 mph 98 % 0 in
06:04 61.7 °F 60.8 °F 29.7 in SW 9.2 mph 12.1 mph 97 % 0 in
06:09 61.9 °F 62.6 °F 29.7 in WSW 7.6 mph 11.2 mph 98 % 0 in
06:14 61.9 °F 62.6 °F 29.7 in SSW 6.3 mph 12.3 mph 98 % 0 in
06:19 61.9 °F 62.6 °F 29.7 in SSW 6.9 mph 12.3 mph 98 % 0 in
06:24 61.9 °F 62.6 °F 29.7 in WSW 5.4 mph 8.7 mph 98 % 0 in
06:29 61.9 °F 62.6 °F 29.7 in WSW 5.4 mph 10.1 mph 98 % 0 in
06:34 61.9 °F 62.6 °F 29.7 in WSW 7.4 mph 10.1 mph 98 % 0 in
06:39 62.1 °F 62.6 °F 29.7 in WSW 5.6 mph 8.7 mph 98 % 0 in
06:44 62.1 °F 62.6 °F 29.7 in SSW 4.3 mph 8.7 mph 98 % 0 in
06:49 62.1 °F 62.6 °F 29.7 in SW 5.6 mph 8.7 mph 98 % 0 in
06:54 62.1 °F 62.6 °F 29.7 in WSW 5.4 mph 7.4 mph 98 % 0 in
06:59 62.1 °F 62.6 °F 29.7 in WSW 5.6 mph 7.4 mph 98 % 0 in
07:04 62.1 °F 62.6 °F 29.7 in Calm   6.5 mph 98 % 0 in
07:09 62.1 °F 62.6 °F 29.7 in SW 3.1 mph 6.3 mph 98 % 0 in
07:14 62.1 °F 62.6 °F 29.7 in SSW 3.8 mph 8.1 mph 98 % 0 in
07:19 62.1 °F 62.6 °F 29.7 in WSW 4.7 mph 8.1 mph 98 % 0 in
07:24 62.1 °F 62.6 °F 29.7 in Calm   7.8 mph 98 % 0 in
07:30 62.2 °F 62.6 °F 29.7 in WSW 5.8 mph 7.8 mph 98 % 0 in
07:35 62.2 °F 62.6 °F 29.7 in WSW 5.8 mph 7.2 mph 98 % 0 in
07:40 62.2 °F 62.6 °F 29.7 in SSW 4 mph 6.3 mph 98 % 0 in
07:45 62.4 °F 62.6 °F 29.6 in Calm   6.5 mph 98 % 0 in
07:50 62.4 °F 62.6 °F 29.6 in SW 7.4 mph 9.8 mph 98 % 0 in
07:55 62.6 °F 62.6 °F 29.6 in SSW 1.6 mph 9.8 mph 97 % 0 in
08:00 62.6 °F 62.6 °F 29.6 in WSW 6.3 mph 9.6 mph 97 % 0 in
08:05 62.6 °F 62.6 °F 29.6 in WSW 5.4 mph 8.7 mph 97 % 0 in
08:10 62.6 °F 62.6 °F 29.6 in SW 5.8 mph 8.5 mph 97 % 0 in
08:15 62.8 °F 62.6 °F 29.7 in WSW 4 mph 8.5 mph 97 % 0 in
08:20 63.1 °F 62.6 °F 29.7 in WSW 1.1 mph 8.5 mph 97 % 0 in
08:25 63.1 °F 62.6 °F 29.7 in SW 7.2 mph 8.1 mph 97 % 0 in
08:30 63.1 °F 62.6 °F 29.7 in South 5.8 mph 8.1 mph 97 % 0 in
08:35 63.1 °F 62.6 °F 29.7 in WSW 5.8 mph 8.5 mph 97 % 0 in
08:40 63.1 °F 62.6 °F 29.7 in SW 10.1 mph 15.4 mph 97 % 0 in
08:45 63.1 °F 62.6 °F 29.7 in West 17 mph 17 mph 97 % 0 in
08:50 63.3 °F 62.6 °F 29.7 in WSW 10.1 mph 17 mph 97 % 0 in
08:55 63.3 °F 62.6 °F 29.7 in WSW 7.8 mph 15.7 mph 97 % 0 in
09:00 63.3 °F 62.6 °F 29.7 in WSW 11 mph 17.2 mph 97 % 0 in
09:05 63.5 °F 62.6 °F 29.7 in West 9.6 mph 17.2 mph 97 % 0 in
09:10 63.5 °F 62.6 °F 29.7 in WSW 13.2 mph 15.9 mph 97 % 0 in
09:15 63.7 °F 62.6 °F 29.7 in West 9.6 mph 19.5 mph 97 % 0 in
09:21 63.9 °F 62.6 °F 29.7 in West 7.6 mph 19.5 mph 97 % 0 in
09:26 64 °F 62.6 °F 29.7 in WSW 7.8 mph 16.6 mph 97 % 0 in
09:31 63.9 °F 62.6 °F 29.7 in WSW 12.8 mph 16.6 mph 97 % 0 in
09:36 63.9 °F 62.6 °F 29.7 in West 10.3 mph 16.3 mph 97 % 0 in
09:41 63.9 °F 62.6 °F 29.7 in WSW 10.3 mph 15.4 mph 96 % 0 in
09:46 63.9 °F 62.6 °F 29.7 in West 12.3 mph 14.8 mph 96 % 0 in
09:51 64 °F 62.6 °F 29.7 in WSW 8.5 mph 17 mph 96 % 0 in
09:56 64.4 °F 64.4 °F 29.7 in WSW 12.5 mph 23 mph 96 % 0 in
10:01 64.8 °F 64.4 °F 29.7 in West 16.1 mph 23 mph 96 % 0 in
10:06 65.1 °F 64.4 °F 29.7 in WSW 10.7 mph 23.9 mph 96 % 0 in
10:11 65.3 °F 64.4 °F 29.7 in WSW 9.4 mph 23.9 mph 96 % 0 in
10:16 65.5 °F 64.4 °F 29.7 in West 19.9 mph 23 mph 96 % 0 in
10:21 65.7 °F 64.4 °F 29.7 in West 15.2 mph 23 mph 95 % 0 in
10:26 65.1 °F 64.4 °F 29.7 in SW 17.4 mph 21.5 mph 95 % 0 in
10:31 64.6 °F 62.6 °F 29.7 in WSW 11 mph 23.5 mph 95 % 0 in
10:36 64.6 °F 62.6 °F 29.7 in West 14.8 mph 26.2 mph 95 % 0 in
10:41 64.8 °F 64.4 °F 29.7 in WNW 12.8 mph 26.2 mph 95 % 0 in
10:46 65.3 °F 64.4 °F 29.7 in West 10.5 mph 17 mph 95 % 0 in
10:51 65.5 °F 64.4 °F 29.7 in WSW 5.6 mph 14.3 mph 95 % 0 in
10:56 64.8 °F 62.6 °F 29.7 in WNW 12.8 mph 16.6 mph 94 % 0 in
11:01 64.8 °F 62.6 °F 29.7 in NNW 6.5 mph 16.6 mph 93 % 0 in
11:06 64.6 °F 62.6 °F 29.7 in NNW 13.6 mph 16.8 mph 93 % 0 in
11:11 64 °F 60.8 °F 29.7 in NNE 5.8 mph 16.8 mph 92 % 0 in
11:16 63.9 °F 60.8 °F 29.8 in NNE 19.9 mph 21.3 mph 92 % 0 in
11:21 64.4 °F 62.6 °F 29.8 in North 8.7 mph 21.3 mph 91 % 0 in
11:26 64.4 °F 62.6 °F 29.8 in North 12.3 mph 13.9 mph 91 % 0 in
11:31 64.4 °F 62.6 °F 29.8 in North 5.6 mph 13.9 mph 91 % 0 in
11:36 64.6 °F 62.6 °F 29.8 in NNW 9.4 mph 13 mph 91 % 0 in
11:41 64.2 °F 62.6 °F 29.8 in WNW 11.4 mph 12.1 mph 91 % 0 in
11:46 64.2 °F 62.6 °F 29.8 in NW 3.8 mph 11.4 mph 92 % 0 in
11:51 64.4 °F 62.6 °F 29.8 in NW 4 mph 10.3 mph 91 % 0 in
11:56 65.1 °F 62.6 °F 29.8 in NW 6 mph 13.2 mph 91 % 0 in
12:01 65.5 °F 62.6 °F 29.8 in NNE 4 mph 13.2 mph 91 % 0 in
12:06 65.5 °F 62.6 °F 29.8 in North 8.9 mph 12.8 mph 90 % 0 in
12:11 65.5 °F 62.6 °F 29.8 in NW 9.2 mph 11 mph 90 % 0 in
12:16 65.7 °F 62.6 °F 29.8 in NNE 9.8 mph 11 mph 89 % 0 in
12:21 65.7 °F 62.6 °F 29.8 in North 10.7 mph 12.1 mph 88 % 0 in
12:26 65.5 °F 62.6 °F 29.8 in North 5.6 mph 12.1 mph 88 % 0 in
12:31 66.9 °F 62.6 °F 29.9 in North 7.4 mph 12.1 mph 86 % 0 in
12:36 67.1 °F 62.6 °F 29.9 in North 10.7 mph 13.2 mph 85 % 0 in
12:41 66.7 °F 62.6 °F 29.9 in North 6.3 mph 13.2 mph 84 % 0 in
12:46 67.1 °F 62.6 °F 29.8 in NNW 8.1 mph 12.5 mph 84 % 0 in
12:51 67.5 °F 62.6 °F 29.8 in WNW 5.8 mph 15.4 mph 82 % 0 in
12:56 67.6 °F 62.6 °F 29.8 in NW 6.3 mph 15.4 mph 83 % 0 in
13:01 66.4 °F 60.8 °F 29.9 in NNW 5.8 mph 11 mph 82 % 0 in
13:06 65.5 °F 60.8 °F 29.9 in NNE 7.6 mph 10.7 mph 86 % 0 in
13:11 64.8 °F 60.8 °F 29.9 in WNW 4.9 mph 12.5 mph 87 % 0 in
13:16 64.8 °F 60.8 °F 29.9 in NNW 6.3 mph 12.5 mph 88 % 0 in
13:21 65.1 °F 60.8 °F 29.9 in ENE 5.4 mph 12.5 mph 87 % 0 in
13:26 66.2 °F 62.6 °F 29.9 in NW 4 mph 12.3 mph 87 % 0 in
13:32 66.9 °F 60.8 °F 29.9 in North 8.7 mph 13 mph 83 % 0 in
13:37 67.8 °F 62.6 °F 29.9 in North 9.8 mph 13 mph 82 % 0 in
13:42 67.8 °F 62.6 °F 29.9 in North 4 mph 12.8 mph 82 % 0 in
13:47 66.7 °F 60.8 °F 29.9 in West 3.8 mph 18.8 mph 81 % 0 in
13:52 66.2 °F 60.8 °F 29.9 in North 8.7 mph 18.8 mph 84 % 0 in
13:57 65.8 °F 60.8 °F 29.9 in North 10.3 mph 15.4 mph 83 % 0 in
14:02 66.4 °F 60.8 °F 29.9 in North 10.1 mph 15.4 mph 81 % 0 in
14:07 67.8 °F 62.6 °F 29.9 in NNE 9.8 mph 19.5 mph 80 % 0 in
14:12 69.6 °F 62.6 °F 29.9 in NNW 7.8 mph 19.5 mph 78 % 0 in
14:18 70.2 °F 62.6 °F 29.9 in NNE 13 mph 15.4 mph 75 % 0 in
14:23 69.6 °F 59 °F 29.9 in NNE 5.8 mph 17.7 mph 70 % 0 in
14:28 69.8 °F 59 °F 29.9 in NNW 10.7 mph 19.2 mph 70 % 0 in
14:33 70.9 °F 60.8 °F 29.9 in NNE 13.2 mph 19.2 mph 70 % 0 in
14:38 70.7 °F 60.8 °F 29.9 in NE 9.8 mph 13.2 mph 68 % 0 in
14:43 72.1 °F 60.8 °F 29.9 in NNE 4.9 mph 13.2 mph 68 % 0 in
14:48 69.4 °F 59 °F 29.9 in NE 6.3 mph 16.8 mph 68 % 0 in
14:53 68.2 °F 59 °F 29.9 in North 11 mph 16.8 mph 71 % 0 in
14:58 68.2 °F 59 °F 29.9 in NNW 7.6 mph 13.4 mph 72 % 0 in
15:03 68.9 °F 59 °F 30 in North 10.3 mph 12.3 mph 71 % 0 in
15:08 68.2 °F 57.2 °F 30 in NNW 10.3 mph 15.2 mph 70 % 0 in
15:13 67.5 °F 57.2 °F 30 in NNE 5.8 mph 15.2 mph 70 % 0.1 in
15:18 67.6 °F 57.2 °F 30 in NNE 5.4 mph 15.2 mph 70 % 0.1 in
15:23 68.2 °F 57.2 °F 30 in North 10.5 mph 13.2 mph 70 % 0.1 in
15:28 68.7 °F 57.2 °F 30 in NNW 8.1 mph 13.9 mph 69 % 0.1 in
15:33 68.9 °F 59 °F 30 in NNE 7.4 mph 13.9 mph 69 % 0.1 in
15:38 68.9 °F 57.2 °F 30 in NNE 13.2 mph 13.2 mph 66 % 0.1 in
15:43 68.5 °F 57.2 °F 30 in NW 12.5 mph 14.3 mph 68 % 0.1 in
15:48 69.4 °F 59 °F 30 in East 12.3 mph 14.5 mph 70 % 0.1 in
15:53 69.3 °F 59 °F 30 in NE 6.7 mph 15.7 mph 68 % 0.1 in
15:58 69.6 °F 59 °F 30 in NNW 10.5 mph 15.7 mph 69 % 0.1 in
16:04 69.6 °F 57.2 °F 30 in NE 5.4 mph 15.2 mph 65 % 0.1 in
16:09 69.1 °F 55.4 °F 30 in North 6.5 mph 15.4 mph 62 % 0.1 in
16:14 68.5 °F 57.2 °F 30 in NNW 10.7 mph 15.7 mph 65 % 0 in
16:19 68.4 °F 55.4 °F 30 in NNW 13 mph 15.7 mph 64 % 0 in
16:24 67.8 °F 55.4 °F 30 in North 12.5 mph 15.4 mph 65 % 0 in
16:29 68.9 °F 57.2 °F 30 in NNE 8.1 mph 15.4 mph 65 % 0 in
16:34 70 °F 57.2 °F 30 in North 7.8 mph 12.8 mph 64 % 0 in
16:39 68.4 °F 55.4 °F 30 in North 8.9 mph 12.8 mph 63 % 0 in
16:44 67.8 °F 55.4 °F 30 in North 6.3 mph 12.3 mph 63 % 0 in
16:49 69.4 °F 55.4 °F 30 in North 5.6 mph 10.7 mph 63 % 0 in
16:54 68.9 °F 55.4 °F 30 in North 10.1 mph 10.7 mph 63 % 0 in
16:59 69.8 °F 55.4 °F 30 in North 7.6 mph 13.2 mph 62 % 0 in
17:04 70.9 °F 55.4 °F 30 in North 10.3 mph 13.2 mph 59 % 0 in
17:09 71.2 °F 53.6 °F 30 in North 10.5 mph 17.9 mph 52 % 0 in
17:14 69.4 °F 51.8 °F 30 in North 5.8 mph 17.9 mph 55 % 0 in
17:19 69.1 °F 51.8 °F 30 in NNW 8.5 mph 14.5 mph 54 % 0 in
17:24 68.4 °F 51.8 °F 30 in North 10.5 mph 12.8 mph 55 % 0 in
17:29 67.8 °F 53.6 °F 30.1 in North 7.8 mph 15.2 mph 58 % 0 in
17:34 66.9 °F 51.8 °F 30.1 in North 3.6 mph 15.2 mph 57 % 0 in
17:51 32 °F 50 °F 30.1 in NNW 10.7 mph 10.7 mph 0 % 0 in
17:56 69.6 °F 51.8 °F 30.1 in North 5.8 mph 10.7 mph 53 % 0 in
18:01 68.9 °F 51.8 °F 30.1 in North 4 mph 10.7 mph 52 % 0 in
18:06 69.4 °F 51.8 °F 30.1 in NNW 7.4 mph 10.5 mph 52 % 0 in
18:11 68.5 °F 51.8 °F 30.1 in North 4.9 mph 12.8 mph 54 % 0 in
18:16 69.1 °F 51.8 °F 30.1 in NW 6.9 mph 14.5 mph 53 % 0 in
18:21 67.8 °F 50 °F 30.1 in ENE 8.5 mph 14.5 mph 53 % 0 in
18:26 68 °F 50 °F 30.1 in North 3.8 mph 12.3 mph 53 % 0 in
18:31 67.5 °F 50 °F 30.1 in NE 7.6 mph 12.5 mph 53 % 0 in
18:37 66.7 °F 50 °F 30.1 in North 8.1 mph 12.8 mph 53 % 0 in
18:42 67.8 °F 50 °F 30.1 in North 2 mph 13.9 mph 53 % 0 in
18:47 68.4 °F 50 °F 30.1 in North 5.6 mph 13.9 mph 51 % 0 in
18:52 66.6 °F 50 °F 30.1 in NNE 10.7 mph 11.2 mph 54 % 0 in
18:57 67.6 °F 51.8 °F 30.1 in North 4.9 mph 12.1 mph 56 % 0 in
19:02 67.8 °F 51.8 °F 30.1 in NNW 3.8 mph 12.1 mph 54 % 0 in
19:07 67.8 °F 50 °F 30.1 in NNW 6.3 mph 10.5 mph 53 % 0 in
19:12 68 °F 50 °F 30.1 in NNE 5.8 mph 12.5 mph 52 % 0 in
19:17 68.4 °F 50 °F 30.1 in North 6.5 mph 12.5 mph 52 % 0 in
19:22 68.2 °F 50 °F 30.1 in NNE 9.2 mph 15.4 mph 52 % 0 in
19:27 67.6 °F 48.2 °F 30.1 in NNW 10.1 mph 15.4 mph 50 % 0 in
19:32 67.5 °F 48.2 °F 30.1 in North 8.1 mph 14.3 mph 50 % 0 in
19:37 67.5 °F 48.2 °F 30.1 in NNW 11 mph 14.5 mph 48 % 0 in
19:42 66.4 °F 46.4 °F 30.1 in North 8.1 mph 14.5 mph 48 % 0 in
19:43 65.8 °F 46.4 °F 30.1 in North 10.5 mph 14.5 mph 50 % 0 in
19:48 65.5 °F 48.2 °F 30.1 in NNW 4.9 mph 12.3 mph 52 % 0 in
19:53 66.2 °F 50 °F 30.1 in East 2.5 mph 10.1 mph 55 % 0 in
19:57 66.6 °F 50 °F 30.1 in NNE 7.8 mph 10.7 mph 56 % 0 in
20:02 66.7 °F 51.8 °F 30.2 in North 6 mph 10.7 mph 57 % 0 in
20:07 66.6 °F 51.8 °F 30.2 in NNE 11 mph 12.1 mph 58 % 0 in
20:12 66.2 °F 50 °F 30.2 in NE 8.5 mph 12.1 mph 57 % 0 in
20:17 65.5 °F 48.2 °F 30.1 in NNE 10.7 mph 10.7 mph 55 % 0 in
20:22 64.9 °F 48.2 °F 30.1 in NNE 2.9 mph 10.7 mph 55 % 0 in
20:28 64.6 °F 48.2 °F 30.1 in NNE 4.3 mph 10.1 mph 57 % 0 in
20:33 64 °F 48.2 °F 30.2 in NE 6.5 mph 8.7 mph 58 % 0 in
20:38 63.3 °F 48.2 °F 30.2 in North 7.8 mph 11 mph 56 % 0 in
20:43 63 °F 48.2 °F 30.2 in NNE 5.6 mph 11 mph 56 % 0 in
20:48 62.6 °F 48.2 °F 30.1 in NNE 6 mph 11 mph 58 % 0 in
20:53 62.2 °F 48.2 °F 30.1 in North 7.4 mph 10.5 mph 61 % 0 in
20:58 61.9 °F 48.2 °F 30.1 in East 2.9 mph 8.7 mph 62 % 0 in
21:03 61.7 °F 50 °F 30.2 in NNE 2.5 mph 6 mph 63 % 0 in
21:08 61.3 °F 50 °F 30.2 in Calm   5.6 mph 65 % 0 in
21:13 61 °F 50 °F 30.2 in Calm   5.6 mph 67 % 0 in
21:18 60.8 °F 50 °F 30.2 in Calm   4.9 mph 67 % 0 in
21:23 60.4 °F 50 °F 30.2 in NNW 3.1 mph 4.9 mph 68 % 0 in
21:28 60.3 °F 50 °F 30.2 in NW 2.9 mph 4.3 mph 67 % 0 in
21:33 59.9 °F 50 °F 30.2 in WNW 3.1 mph 4.3 mph 68 % 0 in
21:38 59.7 °F 50 °F 30.2 in North 3.6 mph 4.3 mph 68 % 0 in
21:44 59.5 °F 50 °F 30.2 in Calm   4.3 mph 69 % 0 in
21:49 59.2 °F 50 °F 30.2 in North 1.6 mph 3.8 mph 70 % 0 in
21:54 59 °F 50 °F 30.2 in NNW 4 mph 4 mph 70 % 0 in
21:59 58.8 °F 50 °F 30.2 in North 4.3 mph 4.3 mph 71 % 0 in
22:04 58.5 °F 50 °F 30.2 in North 2.7 mph 4.7 mph 72 % 0 in
22:09 58.3 °F 50 °F 30.2 in Calm   4.7 mph 73 % 0 in
22:14 58.1 °F 50 °F 30.2 in Calm   3.6 mph 73 % 0 in
22:19 57.9 °F 50 °F 30.2 in Calm   3.6 mph 74 % 0 in
22:24 57.6 °F 50 °F 30.2 in Calm   3.6 mph 74 % 0 in
22:29 57.6 °F 50 °F 30.2 in Calm   2.9 mph 76 % 0 in
22:34 57.6 °F 50 °F 30.2 in Calm   3.1 mph 76 % 0 in
22:39 57.4 °F 50 °F 30.2 in North 2.5 mph 3.1 mph 77 % 0 in
22:44 57 °F 50 °F 30.2 in Calm   3.1 mph 78 % 0 in
22:49 56.8 °F 50 °F 30.2 in Calm   2.5 mph 79 % 0 in
22:54 56.7 °F 51.8 °F 30.2 in Calm   3.1 mph 80 % 0 in
22:59 56.5 °F 51.8 °F 30.2 in Calm   3.1 mph 80 % 0 in
23:04 56.3 °F 51.8 °F 30.2 in NNW 1.1 mph 3.4 mph 81 % 0 in
23:09 56.3 °F 51.8 °F 30.2 in Calm   4 mph 81 % 0 in
23:10 56.3 °F 51.8 °F 30.2 in Calm   4 mph 81 % 0 in
23:15 56.1 °F 50 °F 30.2 in North 2.5 mph 2.9 mph 81 % 0 in
23:20 55.9 °F 51.8 °F 30.2 in Calm   2.9 mph 82 % 0 in
23:25 55.6 °F 50 °F 30.2 in Calm   2 mph 82 % 0 in
23:31 55.2 °F 50 °F 30.2 in Calm     83 % 0 in
23:36 54.9 °F 50 °F 30.2 in Calm     83 % 0 in
23:41 54.5 °F 50 °F 30.2 in Calm     83 % 0 in
23:46 54.3 °F 50 °F 30.2 in Calm     84 % 0 in
23:51 54 °F 50 °F 30.2 in Calm     84 % 0 in
23:56 53.4 °F 48.2 °F 30.2 in Calm     84 % 0 in
Le Gheer Warneton
Courtoisie de Weather Underground - 2.5 mb

Mise a jour : 17/12/2017 22:23:12
Généré par Cumulus 1.9.4 (1099)